Weather History for KBML - August, 2012

Change the Weather History Date:

Sunday, August 26, 2012

  Actual Average Record
Temperature  
Mean Temperature 70 °F -  
Max Temperature 87 °F 73 °F 87 °F (2012)
Min Temperature 53 °F 45 °F 37 °F (2001)
Cooling Degree Days 4    
Growing Degree Days 20 (Base 50)    
Moisture  
Dew Point 57 °F    
Average Humidity 84    
Maximum Humidity 100    
Minimum Humidity 41    
Precipitation  
Precipitation 0.00 in - - ()
Sea Level Pressure  
Sea Level Pressure 30.31 in    
Wind  
Wind Speed 0 mph (South)    
Max Wind Speed 6 mph    
Max Gust Speed -    
Visibility 5 miles    
Events Fog    
Averages and records for this station are not official NWS values.
T = Trace of Precipitation, MM = Missing Value Source: NWS Daily Summary

Daily Weather History Graph

Daily Weather History Graph

Search for Another Location

Airport or City:

Trip Planner

Search our weather history database for the weather conditions in past years. The results will help you decide how hot, cold, wet, or windy it might be!

Date:

Astronomy

Aug. 26, 2012 Rise Set
Actual Time 6:00 AM EDT 7:31 PM EDT
Civil Twilight 5:30 AM EDT 8:01 PM EDT
Nautical Twilight 4:53 AM EDT 8:38 PM EDT
Astronomical Twilight 4:13 AM EDT 9:17 PM EDT
Moon 4:06 PM EDT (8/26) 12:30 AM EDT (8/26)
Length of Visible Light 14h 31m
Length of Day
13h 30m
Waxing Gibbous, 73% of the Moon is Illuminated
Aug 26
Waxing Gibbous
Aug 31
Full
Sep 8
Last Quarter
Sep 15
New
Sep 22
First Quarter

Hourly Weather History & Observations

Time (EDT) Temp. Heat Index Dew Point Humidity Pressure Visibility Wind Dir Wind Speed Gust Speed Precip Events Conditions
12:52 AM 57.9 °F - 55.9 °F 93% 30.32 in 5.0 mi Calm Calm - N/A   Clear
1:52 AM 55.9 °F - 55.0 °F 97% 30.32 in 5.0 mi Calm Calm - N/A   Clear
2:02 AM 55.4 °F - 53.6 °F 94% 30.33 in 2.5 mi Calm Calm - N/A   Partly Cloudy
2:07 AM 57.2 °F - 55.4 °F 94% 30.33 in 1.2 mi Calm Calm - N/A   Partly Cloudy
2:13 AM 57.2 °F - 55.4 °F 94% 30.33 in 2.5 mi Calm Calm - N/A   Scattered Clouds
2:34 AM 55.4 °F - 53.6 °F 94% 30.33 in 1.2 mi Calm Calm - N/A   Mostly Cloudy
2:37 AM 55.4 °F - 53.6 °F 94% 30.33 in 0.5 mi Calm Calm - N/A Fog Fog
2:44 AM 55.4 °F - 53.6 °F 94% 30.33 in 0.2 mi Calm Calm - N/A Fog Fog
2:50 AM 55.4 °F - 55.4 °F 100% 30.33 in 1.0 mi Calm Calm - N/A   Mist
2:52 AM 55.9 °F - 55.0 °F 97% 30.33 in 1.2 mi Calm Calm - N/A   Overcast
3:03 AM 55.4 °F - 55.4 °F 100% 30.34 in 0.5 mi Calm Calm - N/A Fog Fog
3:39 AM 55.4 °F - 53.6 °F 94% 30.34 in 0.2 mi Calm Calm - N/A Fog Fog
3:52 AM 54.0 °F - 54.0 °F 100% 30.33 in 0.2 mi Calm Calm - N/A Fog Fog
4:15 AM 53.6 °F - 53.6 °F 100% 30.34 in 0.5 mi Calm Calm - N/A Fog Fog
4:32 AM 53.6 °F - 51.8 °F 94% 30.34 in 0.2 mi Calm Calm - N/A Fog Fog
4:52 AM 54.0 °F - 53.1 °F 97% 30.34 in 0.2 mi Calm Calm - N/A Fog Fog
5:52 AM 54.0 °F - 52.0 °F 93% 30.34 in 0.2 mi Calm Calm - N/A Fog Fog
6:52 AM 54.0 °F - 54.0 °F 100% 30.35 in 0.2 mi Calm Calm - N/A Fog Fog
7:06 AM 55.4 °F - 55.4 °F 100% 30.35 in 0.5 mi Calm Calm - N/A Fog Fog
7:12 AM 55.4 °F - 55.4 °F 100% 30.36 in 1.5 mi Calm Calm - N/A   Overcast
7:20 AM 57.2 °F - 55.4 °F 94% 30.36 in 3.0 mi Calm Calm - N/A   Mostly Cloudy
7:33 AM 57.2 °F - 55.4 °F 94% 30.36 in 6.0 mi Calm Calm - N/A   Scattered Clouds
7:52 AM 59.0 °F - 57.0 °F 93% 30.36 in 6.0 mi Calm Calm - N/A   Clear
8:52 AM 66.9 °F - 61.0 °F 81% 30.35 in 10.0 mi Calm Calm - N/A   Clear
9:52 AM 73.9 °F - 61.0 °F 64% 30.35 in 10.0 mi Calm Calm - N/A   Clear
10:52 AM 78.1 °F - 63.0 °F 60% 30.33 in 10.0 mi Calm Calm - N/A   Clear
11:52 AM 82.0 °F 83.0 °F 62.1 °F 51% 30.32 in 10.0 mi Variable 3.5 mph - N/A   Clear
12:52 PM 84.0 °F 83.8 °F 59.0 °F 43% 30.30 in 10.0 mi Variable 3.5 mph - N/A   Clear
1:52 PM 84.0 °F 84.0 °F 60.1 °F 44% 30.28 in 10.0 mi Calm Calm - N/A   Clear
2:52 PM 84.9 °F 84.4 °F 59.0 °F 41% 30.26 in 10.0 mi South 4.6 mph - N/A   Clear
3:52 PM 86.0 °F 85.7 °F 60.1 °F 41% 30.24 in 10.0 mi SSW 5.8 mph - N/A   Scattered Clouds
4:52 PM 82.9 °F 83.7 °F 62.1 °F 49% 30.23 in 10.0 mi SSE 4.6 mph - N/A   Mostly Cloudy
5:52 PM 78.1 °F - 62.1 °F 58% 30.23 in 10.0 mi South 3.5 mph - N/A   Scattered Clouds
6:52 PM 75.9 °F - 66.0 °F 71% 30.22 in 10.0 mi Calm Calm - N/A   Clear
7:52 PM 69.1 °F - 64.9 °F 87% 30.23 in 8.0 mi Calm Calm - N/A   Clear
8:52 PM 64.9 °F - 63.0 °F 93% 30.23 in 6.0 mi Calm Calm - N/A   Clear
9:52 PM 63.0 °F - 61.0 °F 93% 30.23 in 4.0 mi Calm Calm - N/A   Clear
10:52 PM 62.1 °F - 60.1 °F 93% 30.23 in 6.0 mi Calm Calm - N/A   Clear
11:52 PM 61.0 °F - 59.0 °F 93% 30.22 in 5.0 mi Calm Calm - N/A   Clear